Regional Weather Roundup
Issued by NWS Columbia, SC

Home | Current Version | Previous Version | Text Only | Print | Product List | Glossary On
Versions: 1 2 3 4 5 6 7 8 9 10 11 12 13 14 15 16 17 18 19 20 21 22 23 24 25 26 27 28 29 30 31 32 33 34 35 36 37 38 39 40 41 42 43 44 45 46 47 48 49 50
000
ASUS42 KCAE 301510
RWRCAE
REGIONAL WEATHER ROUNDUP
NATIONAL WEATHER SERVICE COLUMBIA SC
1100 AM EDT SAT JUL 30 2016

NOTE: "FAIR" INDICATES FEW OR NO CLOUDS BELOW 12,000 FEET WITH NO
SIGNIFICANT WEATHER AND/OR OBSTRUCTIONS TO VISIBILITY.

NOT ALL STATIONS ARE QUALITY CONTROLLED BY THE NATIONAL
WEATHER SERVICE. USE DATA WITH CAUTION...ESPECIALLY
DEWPOINT OBSERVATIONS.

SCZ001>056-GAZ040-063>065-077-301600-
...UPSTATE SOUTH CAROLINA...

CITY           SKY/WX    TMP DP  RH WIND       PRES   REMARKS
ANDERSON       SUNNY     87  70  56 W8        30.04R
LIBERTY        CLOUDY    79  74  84 CALM      30.05R
SPARTANBURG    LGT RAIN  79  70  73 CALM      30.04R
CLEMSON        CLOUDY    84  70  62 W6        30.06R
GREENVILLE     CLOUDY    81  69  67 S3        30.06R
GREENWOOD      SUNNY     88  69  53 SW9       30.05S
GREER          CLOUDY    80  69  69 S6        30.04R
ROCK HILL      CLOUDY    85  72  65 SW6       30.04R
CHESTER        CLOUDY    81  72  74 CALM      30.05R
LAURENS        MOSUNNY   82  72  69 SW3       30.04R


...CENTRAL SOUTH CAROLINA...

CITY           SKY/WX    TMP DP  RH WIND       PRES   REMARKS
COLUMBIA APT   MOSUNNY   94  70  45 VRB6      30.01S HX 100
COLUMBIA OWENS SUNNY     92  69  47 SW7       30.02S HX  97
MCENTIRE ANGB  MOSUNNY   91  73  55 SW6       30.02S HX  99
ORANGEBURG     SUNNY     91  71  51 W5        30.03S HX  97
SUMTER SHAW    SUNNY     89  73  58 SW8       30.00S HAZE    HX  97
NEWBERRY       SUNNY     88  73  62 W7        30.06S HX  96
AIKEN          FAIR      88  70  55 SW7       30.08R
MANNING        FAIR      90  70  51 W5        30.02S HX  95
LANCASTER      SUNNY     86  73  66 S7        30.02S
WINNSBORO      SUNNY     88  73  62 W5        30.03S HX  96


...EASTERN AND COASTAL SOUTH CAROLINA...

CITY           SKY/WX    TMP DP  RH WIND       PRES   REMARKS
MYRTLE BEACH   SUNNY     93  72  49 W8        30.02R HX 100
N MYRTLE BCH   SUNNY     93  73  52 NW7       30.00R HX 102
CONWAY         FAIR      90  73  58 W5        30.00S HX  98
MARION           N/A     91  72  52 SW9       30.00S HX  98
HARTSVILLE     FAIR      88  72  58 SW7       30.01S
FLORENCE       SUNNY     90  73  57 W8        30.00S HX  98
DARLINGTON     SUNNY     89  76  65 W10       30.01R HX 100
CHARLESTON APT MOSUNNY   93  73  52 VRB5      30.02S HX 102
MOUNT PLEASANT FAIR      93  75  55 CALM      30.02S HX 104
WALTERBORO     SUNNY     91  70  49 SW3       30.04S HX  97
BEAUFORT       SUNNY     93  72  50 CALM      30.03S HX 101


...EASTERN GEORGIA...

CITY           SKY/WX    TMP DP  RH WIND       PRES   REMARKS
AUGUSTA BUSH F SUNNY     90  71  53 W6        30.03R HX  96
AUGUSTA DANIEL SUNNY     90  71  53 VRB5      30.05R HX  96
WASHINGTON     FAIR      86  73  66 W7        30.06R
CLAXTON        FAIR      92  75  59 W7        30.04F HX 103
STATESBORO     SUNNY     90  76  65 SW7       30.05S HX 101
SAVANNAH       MOSUNNY   92  72  51 W7        30.04S HX  99


...SOUTHERN NORTH CAROLINA...

CITY           SKY/WX    TMP DP  RH WIND       PRES   REMARKS
CHARLOTTE      CLOUDY    83  71  67 CALM      30.04R
MONROE         CLOUDY    87  71  58 SW6       30.02R
ROCKINGHAM     SUNNY     86  74  67 SW8       30.00S
RUTHERFORDTON    N/A     81  72  74 CALM      30.06S
ASHEVILLE      CLOUDY    78  67  68 N5        30.12R

$$



USA.gov is the U.S. government's official web portal to all federal, state and local government web resources and services.